Corpus Christi, TX

3:14 AM CST on January 23, 2018 (GMT -0600)
Corpus Christi International

Weather History for KCRP - November, 2011

Change the Weather History Date:

Thursday, November 10, 2011

  Actual Average Record
Temperature  
Mean Temperature 57 °F 68 °F  
Max Temperature 69 °F 78 °F 93 °F (1947)
Min Temperature 44 °F 58 °F 36 °F (1977)
Degree Days  
Heating Degree Days 8 2  
Month to date heating degree days 19 15  
Since 1 July heating degree days 31 25  
Cooling Degree Days 0 5  
Month to date cooling degree days 59 57  
Year to date cooling degree days 3968 3408  
Growing Degree Days 7 (Base 50)    
Moisture  
Dew Point 35 °F    
Average Humidity 46    
Maximum Humidity 71    
Minimum Humidity 21    
Precipitation  
Precipitation 0.12 in 0.08 in 2.21 in (1992)
Month to date precipitation 0.28 0.84  
Year to date precipitation 10.82 28.80  
Snow  
Snow 0.00 in - - ()
Month to date snowfall 0.0  
Since 1 July snowfall 0.0  
Since 1 September snowfall 0.0  
Snow Depth 0.00 in    
Sea Level Pressure  
Sea Level Pressure 30.39 in    
Wind  
Wind Speed 10 mph (North)    
Max Wind Speed 20 mph    
Max Gust Speed 24 mph    
Visibility 10 miles    
Events Rain    
T = Trace of Precipitation, MM = Missing Value Source: NWS Daily Summary

Daily Weather History Graph

Daily Weather History Graph

Search for Another Location

Airport or City:

Trip Planner

Search our weather history database for the weather conditions in past years. The results will help you decide how hot, cold, wet, or windy it might be!

Date:

Astronomy

Nov. 10, 2011 Rise Set
Actual Time 6:47 AM CST 5:40 PM CST
Civil Twilight 6:22 AM CST 6:04 PM CST
Nautical Twilight 5:54 AM CST 6:32 PM CST
Astronomical Twilight 5:26 AM CST 7:00 PM CST
Moon 5:34 PM CST (11/10) 6:37 AM CST (11/10)
Length of Visible Light 11h 42m
Length of Day
10h 53m
Full, 100% of the Moon is Illuminated
Nov 10
Full
Nov 10
Full
Nov 18
Last Quarter
Nov 25
New
Dec 2
First Quarter

Hourly Weather History & Observations

Time (CST) Temp. Dew Point Humidity Pressure Visibility Wind Dir Wind Speed Gust Speed Precip Events Conditions
12:51 AM 53.1 °F 44.1 °F 71% 30.36 in 10.0 mi NNE 17.3 mph 23.0 mph 0.08 in Rain Light Rain
1:51 AM 53.1 °F 45.0 °F 74% 30.36 in 10.0 mi North 9.2 mph - 0.04 in   Mostly Cloudy
2:51 AM 53.1 °F 44.1 °F 71% 30.35 in 10.0 mi NNW 10.4 mph - N/A   Scattered Clouds
3:51 AM 51.1 °F 42.1 °F 71% 30.36 in 10.0 mi NNW 12.7 mph - N/A   Partly Cloudy
4:51 AM 50.0 °F 39.9 °F 68% 30.38 in 10.0 mi NNW 12.7 mph - N/A   Partly Cloudy
5:51 AM 48.9 °F 37.9 °F 66% 30.40 in 10.0 mi NNW 13.8 mph - N/A   Partly Cloudy
6:51 AM 48.0 °F 37.0 °F 66% 30.43 in 10.0 mi NNW 12.7 mph - N/A   Partly Cloudy
7:51 AM 51.1 °F 37.9 °F 61% 30.46 in 10.0 mi North 16.1 mph - N/A   Clear
8:51 AM 52.0 °F 39.0 °F 61% 30.48 in 10.0 mi North 12.7 mph - N/A   Clear
9:51 AM 57.9 °F 39.9 °F 51% 30.49 in 10.0 mi North 15.0 mph - N/A   Clear
10:51 AM 63.0 °F 37.0 °F 38% 30.48 in 10.0 mi NNE 15.0 mph 21.9 mph N/A   Clear
11:51 AM 64.9 °F 36.0 °F 34% 30.46 in 10.0 mi NE 11.5 mph 19.6 mph N/A   Clear
12:51 PM 66.0 °F 33.1 °F 29% 30.42 in 10.0 mi North 11.5 mph - N/A   Clear
1:51 PM 68.0 °F 30.9 °F 25% 30.38 in 10.0 mi NNE 9.2 mph 19.6 mph N/A   Clear
2:51 PM 68.0 °F 27.0 °F 21% 30.36 in 10.0 mi NNE 11.5 mph 17.3 mph N/A   Clear
3:51 PM 68.0 °F 27.0 °F 21% 30.34 in 10.0 mi North 6.9 mph - N/A   Clear
4:51 PM 66.9 °F 28.0 °F 23% 30.33 in 10.0 mi North 10.4 mph - N/A   Clear
5:51 PM 60.1 °F 28.9 °F 31% 30.34 in 10.0 mi North 5.8 mph - N/A   Clear
6:51 PM 55.0 °F 28.9 °F 37% 30.35 in 10.0 mi NNW 5.8 mph - N/A   Clear
7:51 PM 52.0 °F 30.9 °F 45% 30.36 in 10.0 mi WNW 5.8 mph - N/A   Clear
8:51 PM 53.1 °F 28.9 °F 40% 30.36 in 10.0 mi NW 5.8 mph - N/A   Clear
9:51 PM 48.9 °F 30.0 °F 48% 30.37 in 10.0 mi WNW 4.6 mph - N/A   Clear
10:51 PM 46.9 °F 30.9 °F 54% 30.36 in 10.0 mi Calm Calm - N/A   Clear
11:51 PM 45.0 °F 30.9 °F 58% 30.35 in 10.0 mi Calm Calm - N/A   Clear